Details for FedEx at OMDB




Go Back


Latest METAR
Local Time

OMDB 261300Z 32013KT CAVOK 35/19 Q1005 NOSIG

26/05/2018, 17:45:26

Description
Results
FedEx Logo
Number of Pilots based at OMDB
1 Pilots Based here
Number of FedEx Flights Departed from OMDB
0 Flights Departed
Number of FedEx Flights Arrived at OMDB
0 Flights Arrived
Number of FedEx Schedules Departing from OMDB
22 Schedules
Number of FedEx Schedules Arriving at OMDB
22 Schedules
Number of FedEx Schedules Departing from OMDB availible today
3 Schedules Today
Number of FedEx Schedules Arriving at OMDB availible today
4 Schedules Today
Average Landing Rate at OMDB
-231 fpm
FedEx Average Landing Rate at OMDB
0 fpm
Total Fuel Purchased at OMDB by FedEx
0.00 kgs / 0.00 lbs

Pilots Based at OMDB


Pilot ID
Pilot Name
Pilot Rank
No. of Flights
No. of Flying Hours
Adam Noble
88
377.27
Content